[[{"header":{"parameterUnit":"m.s-1","parameterCategory":1,"la1":30.2991,"la2":30.254,"lo1":-89.0895,"lo2":-89.0444,"dy":0.0017,"dx":0.0017,"nx":28,"ny":28,"refTime":"2025-12-20T03:00:00:Z","depth":0,"parameterNumber":2,"parameterNumberName":"U-component_of_WINDS"},"data":[0,0,0,0,0,0,0,0,0,0,0,0,0,0,0,0,0,0,0,0,0,0,0,0,0,0,0,0,0,0,0,0,0,0,0,0,0,0,0,0,0,0,0,0,0,0,0,0,0,0,0,0,0,0,0,0,0,0,-0.0308,-0.0308,0,-0.0263,-0.0262,-0.0262,-0.0245,-0.0245,-0.0246,-0.0246,-0.0198,-0.0197,-0.0196,0,0,0,0,0,0,0,0,0,0,0,0,0,-0.0381,-0.038,-0.0309,-0.0308,-0.0307,-0.0263,-0.0262,-0.0261,-0.0245,-0.0245,-0.0246,-0.0246,-0.0199,-0.0197,-0.0196,0,0,0,0,0,0,0,0,0,0,0,0,0,-0.0344,-0.038,-0.0309,-0.0294,-0.0292,-0.0263,-0.0262,-0.0261,-0.0245,-0.0245,-0.0246,-0.0246,-0.0199,-0.0197,-0.0195,-0.0177,0,0,-0.0189,-0.0188,0,0,0,0,0,0,0,0,-0.0346,-0.0341,-0.0297,-0.0295,-0.0293,-0.026,-0.027,-0.0233,-0.0245,-0.0263,-0.0246,-0.0246,-0.0219,-0.0215,-0.0206,-0.0175,-0.0173,-0.0189,-0.0187,-0.0186,-0.0186,0,0,0,0,0,0,0,-0.0349,-0.0343,-0.029,-0.0296,-0.0294,-0.0289,-0.0284,-0.0263,-0.024,-0.0261,-0.026,-0.0255,-0.0218,-0.0208,-0.0205,-0.0172,-0.0189,-0.0187,-0.0185,-0.0185,-0.0123,-0.0123,0,0,0,0,0,0,-0.0354,-0.0345,-0.0292,-0.0289,-0.0321,-0.0288,-0.0282,-0.027,-0.024,-0.0236,-0.0255,-0.0254,-0.0211,-0.0207,-0.0203,-0.0179,-0.0186,-0.0184,-0.0183,-0.0123,-0.0123,-0.0123,0,0,0,0,0,0,-0.0355,-0.0349,-0.0294,-0.0317,-0.0309,-0.0286,-0.0273,-0.0269,-0.0259,-0.0235,-0.0231,-0.0249,-0.0211,-0.0206,-0.0183,-0.0177,-0.0183,-0.0182,-0.0124,-0.0123,-0.0123,-0.0132,0,0,0,0,0,0,-0.0358,-0.035,-0.0343,-0.0317,-0.0308,-0.0275,-0.0273,-0.0268,-0.0256,-0.0255,-0.0229,-0.0225,-0.0211,-0.0187,-0.0181,-0.0174,-0.018,-0.0124,-0.0124,-0.0123,-0.0132,-0.0132,-0.0131,0,0,0,0,0,-0.036,-0.0347,-0.0343,-0.0336,-0.0299,-0.0275,-0.027,-0.0255,-0.0255,-0.0248,-0.0232,-0.0225,-0.0179,-0.0185,-0.0178,-0.0171,-0.0125,-0.0124,-0.0123,-0.0132,-0.0132,-0.0131,0,0,0,0,0,0,-0.0374,-0.0344,-0.0338,-0.0317,-0.0299,-0.0272,-0.0263,-0.0255,-0.0237,-0.0236,-0.0218,-0.0213,-0.0191,-0.0179,-0.0186,-0.0151,-0.0151,-0.0149,-0.016,-0.016,-0.0159,-0.0163,-0.0178,0,0,0,0,0,-0.0374,-0.0357,-0.0332,-0.0315,-0.0307,-0.0286,-0.0275,-0.0265,-0.0245,-0.0238,-0.022,-0.0201,-0.0182,-0.017,-0.0151,-0.013,-0.0124,-0.0121,-0.0121,-0.0121,-0.012,-0.0106,-0.0105,-0.012,-0.012,-0.012,0,0,-0.0375,-0.0357,-0.0347,-0.0318,-0.0302,-0.0285,-0.028,-0.0262,-0.0249,-0.0235,-0.0213,-0.0199,-0.0177,-0.0155,-0.0144,-0.0143,-0.0114,-0.012,-0.012,-0.0119,-0.0105,-0.0104,-0.0103,-0.0119,-0.0119,-0.012,0,0,-0.0368,-0.0352,-0.0336,-0.0321,-0.0298,-0.0284,-0.0281,-0.0255,-0.0246,-0.0223,-0.0212,-0.0196,-0.0164,-0.0148,-0.0136,-0.0121,-0.0114,-0.0116,-0.0114,-0.0102,-0.01,-0.0099,-0.0094,-0.0092,-0.0114,-0.0114,-0.0114,0,-0.0372,-0.0345,-0.0329,-0.0311,-0.0299,-0.0285,-0.0269,-0.0254,-0.0226,-0.0218,-0.0217,-0.0176,-0.016,-0.0134,-0.013,-0.0121,-0.0115,-0.0119,-0.0102,-0.0101,-0.0099,-0.0094,-0.0092,-0.0114,-0.0114,-0.0114,-0.0114,0,-0.0351,-0.0333,-0.0323,-0.0296,-0.0282,-0.0265,-0.0246,-0.0233,-0.0224,-0.021,-0.0187,-0.0167,-0.0144,-0.0137,-0.0128,-0.0109,-0.0109,-0.0106,-0.0105,-0.0099,-0.0093,-0.0091,-0.0115,-0.0115,-0.0115,-0.0115,0,0,-0.0352,-0.0315,-0.0312,-0.0299,-0.0272,-0.0258,-0.024,-0.0217,-0.0206,-0.0187,-0.0171,-0.0144,-0.014,-0.0126,-0.0115,-0.0104,-0.0093,-0.0102,-0.0101,-0.0101,-0.0071,-0.0073,-0.0071,-0.0088,-0.0088,-0.0087,-0.0072,0,-0.0341,-0.0308,-0.0293,-0.0267,-0.025,-0.0236,-0.022,-0.0202,-0.0188,-0.0171,-0.0156,-0.0137,-0.0134,-0.0125,-0.0114,-0.0097,-0.0087,-0.0098,-0.0073,-0.0072,-0.0079,-0.0068,-0.0071,-0.0058,-0.007,-0.007,-0.0069,0,-0.0324,-0.0304,-0.0277,-0.0251,-0.0243,-0.023,-0.0207,-0.0191,-0.0169,-0.016,-0.0144,-0.0133,-0.0113,-0.0114,-0.0086,-0.0094,-0.0082,-0.0073,-0.0072,-0.0069,-0.0071,-0.0065,-0.0054,-0.0052,-0.0066,-0.0066,-0.0067,0,-0.0327,-0.0294,-0.0273,-0.0262,-0.0232,-0.0222,-0.0209,-0.0188,-0.0175,-0.0155,-0.0146,-0.0124,-0.0112,-0.0095,-0.0078,-0.008,-0.0051,-0.0051,-0.0043,-0.0043,-0.0037,-0.0038,-0.0024,-0.003,-0.003,-0.003,-0.003,0,-0.0316,-0.03,-0.0274,-0.0261,-0.0242,-0.0224,-0.0205,-0.0191,-0.0172,-0.0156,-0.0143,-0.0128,-0.0106,-0.0088,-0.0075,-0.0053,-0.0048,-0.004,-0.0037,-0.0041,-0.0042,-0.0034,-0.0034,-0.003,-0.003,-0.003,-0.003,0,-0.0316,-0.0298,-0.0274,-0.0247,-0.024,-0.0227,-0.0204,-0.0191,-0.0176,-0.0156,-0.015,-0.0127,-0.0105,-0.0087,-0.0058,-0.0049,-0.0026,-0.0022,-0.0034,-0.0032,-0.0025,-0.0026,-0.0005,-0.0001,-0.001,-0.001,-0.001,0,-0.0311,-0.0298,-0.0269,-0.0257,-0.0244,-0.0226,-0.0212,-0.0194,-0.018,-0.0154,-0.0144,-0.0121,-0.0102,-0.0067,-0.0048,-0.0025,-0.0021,-0.0015,-0.0017,-0.0022,-0.002,-0.0021,-0.002,-0.0015,-0.0015,-0.0015,-0.0015,0,-0.0303,-0.0294,-0.0275,-0.0253,-0.0237,-0.0219,-0.02,-0.0191,-0.0169,-0.0154,-0.0132,-0.0117,-0.0087,-0.0064,-0.004,-0.0026,-0.0016,-0.0014,-0.0011,-0.0016,-0.0023,-0.0018,-0.0033,-0.0015,-0.0015,-0.0015,-0.0015,-0.0015,-0.03,-0.0287,-0.0265,-0.0244,-0.0228,-0.0211,-0.0197,-0.018,-0.0161,-0.0136,-0.0126,-0.0103,-0.008,-0.0046,-0.0032,-0.0013,-0.0012,-0.0008,-0.0006,-0.0006,-0.0006,-0.0026,-0.0009,-0.0009,-0.0009,-0.0009,-0.0009,0,-0.0291,-0.0276,-0.0257,-0.0231,-0.0214,-0.0207,-0.0185,-0.0172,-0.0152,-0.0132,-0.0113,-0.0086,-0.0064,-0.0043,-0.0019,-0.0008,-0.0003,-0.0003,-0.0003,0.0,-0.0009,-0.0014,-0.0007,-0.0007,-0.0007,-0.0007,-0.0007,-0.0007,-0.0285,-0.0263,-0.0252,-0.0222,-0.0206,-0.0184,-0.0172,-0.0156,-0.0139,-0.0111,-0.0092,-0.0078,-0.0057,-0.0032,-0.0011,-0.0005,0.0003,0.0003,0.001,0.0001,0.0001,0.0,-0.0004,0.0004,0.0004,0.0017,0.0017,0.0017]},{"header":{"parameterUnit":"m.s-1","parameterCategory":1,"la1":30.2991,"la2":30.254,"lo1":-89.0895,"lo2":-89.0444,"dy":0.0017,"dx":0.0017,"nx":28,"ny":28,"refTime":"2025-12-20T03:00:00:Z","depth":0,"parameterNumber":3,"parameterNumberName":"V-component_of_WINDS"},"data":[0,0,0,0,0,0,0,0,0,0,0,0,0,0,0,0,0,0,0,0,0,0,0,0,0,0,0,0,0,0,0,0,0,0,0,0,0,0,0,0,0,0,0,0,0,0,0,0,0,0,0,0,0,0,0,0,0,0,-4.0429,-4.043,0,-4.0537,-4.0539,-4.054,-4.0563,-4.0563,-4.0562,-4.0561,-4.0666,-4.0669,-4.0672,0,0,0,0,0,0,0,0,0,0,0,0,0,-4.0239,-4.0242,-4.0429,-4.043,-4.0432,-4.0537,-4.0539,-4.054,-4.0564,-4.0563,-4.0562,-4.0561,-4.0664,-4.0669,-4.0673,0,0,0,0,0,0,0,0,0,0,0,0,0,-4.0332,-4.0244,-4.0429,-4.0456,-4.046,-4.0537,-4.0539,-4.0541,-4.0564,-4.0563,-4.0561,-4.056,-4.0663,-4.0668,-4.0673,-4.0729,0,0,-4.0689,-4.0692,0,0,0,0,0,0,0,0,-4.0326,-4.0339,-4.0451,-4.0455,-4.0459,-4.0536,-4.051,-4.0603,-4.0564,-4.0524,-4.0561,-4.056,-4.0623,-4.0631,-4.0654,-4.0734,-4.0738,-4.069,-4.0693,-4.0695,-4.0697,0,0,0,0,0,0,0,-4.032,-4.0334,-4.0472,-4.0452,-4.0457,-4.0462,-4.0474,-4.0528,-4.0578,-4.0527,-4.0529,-4.0542,-4.0625,-4.0649,-4.0657,-4.074,-4.069,-4.0694,-4.0698,-4.07,-4.0874,-4.0875,0,0,0,0,0,0,-4.0309,-4.0329,-4.0468,-4.0475,-4.0389,-4.0467,-4.048,-4.0512,-4.0578,-4.0587,-4.0543,-4.0543,-4.0641,-4.065,-4.066,-4.0733,-4.0695,-4.07,-4.0703,-4.0873,-4.0874,-4.0876,0,0,0,0,0,0,-4.0305,-4.0322,-4.0464,-4.0403,-4.0421,-4.0471,-4.0507,-4.0515,-4.0539,-4.059,-4.0599,-4.0559,-4.064,-4.0653,-4.0713,-4.0736,-4.0702,-4.0707,-4.0871,-4.0873,-4.0875,-4.0875,0,0,0,0,0,0,-4.03,-4.032,-4.0342,-4.0403,-4.0424,-4.0516,-4.0508,-4.0518,-4.0549,-4.055,-4.0607,-4.0615,-4.064,-4.0705,-4.0718,-4.0743,-4.0711,-4.0869,-4.0872,-4.0874,-4.0874,-4.0877,-4.0881,0,0,0,0,0,-4.0293,-4.0335,-4.0343,-4.036,-4.0453,-4.0517,-4.0529,-4.0559,-4.0551,-4.0573,-4.0607,-4.0613,-4.0732,-4.0711,-4.0726,-4.0753,-4.0868,-4.0871,-4.0874,-4.0872,-4.0877,-4.0881,0,0,0,0,0,0,-4.0272,-4.0344,-4.0353,-4.0417,-4.0461,-4.0521,-4.055,-4.0562,-4.0607,-4.0606,-4.0639,-4.0652,-4.071,-4.0737,-4.0713,-4.0812,-4.0799,-4.0806,-4.0792,-4.0797,-4.0801,-4.0793,-4.0716,0,0,0,0,0,-4.0276,-4.0323,-4.0382,-4.0433,-4.0455,-4.0499,-4.0527,-4.0547,-4.0593,-4.0611,-4.0649,-4.0692,-4.0739,-4.0769,-4.0815,-4.0877,-4.0891,-4.0903,-4.0907,-4.091,-4.0915,-4.0953,-4.096,-4.0887,-4.0887,-4.0887,0,0,-4.0282,-4.0327,-4.0354,-4.043,-4.0467,-4.0515,-4.0514,-4.0563,-4.06,-4.0618,-4.0679,-4.0708,-4.0758,-4.0821,-4.085,-4.0845,-4.0939,-4.0914,-4.0916,-4.092,-4.0958,-4.0964,-4.0971,-4.0889,-4.0889,-4.0888,0,0,-4.0319,-4.0357,-4.0406,-4.0444,-4.0501,-4.053,-4.0542,-4.0601,-4.0623,-4.0684,-4.0701,-4.0743,-4.0822,-4.0859,-4.0888,-4.0944,-4.0953,-4.0958,-4.0977,-4.1013,-4.1019,-4.1025,-4.1047,-4.1054,-4.0963,-4.0963,-4.0963,0,-4.032,-4.0394,-4.0428,-4.048,-4.0513,-4.0536,-4.0585,-4.0619,-4.0687,-4.071,-4.0704,-4.0808,-4.0843,-4.0916,-4.093,-4.0952,-4.0967,-4.0952,-4.1016,-4.1022,-4.1027,-4.1049,-4.1057,-4.0963,-4.0963,-4.0963,-4.0963,0,-4.0394,-4.0445,-4.0477,-4.0547,-4.0584,-4.0633,-4.0675,-4.0708,-4.0725,-4.0755,-4.0819,-4.0863,-4.092,-4.0938,-4.0954,-4.1015,-4.1011,-4.101,-4.0998,-4.1034,-4.1055,-4.1064,-4.0964,-4.0964,-4.0964,-4.0963,0,0,-4.0418,-4.051,-4.0521,-4.0555,-4.0621,-4.0661,-4.0713,-4.0772,-4.0801,-4.0847,-4.0892,-4.0961,-4.0963,-4.0996,-4.1016,-4.1048,-4.1094,-4.1044,-4.1046,-4.1054,-4.1166,-4.1168,-4.1177,-4.11,-4.1101,-4.1103,-4.1163,0,-4.0465,-4.0561,-4.0595,-4.0673,-4.0723,-4.0747,-4.0792,-4.0837,-4.0868,-4.0913,-4.0945,-4.0996,-4.0992,-4.1013,-4.1046,-4.1081,-4.1117,-4.1077,-4.1142,-4.1144,-4.1131,-4.1188,-4.1188,-4.1243,-4.1171,-4.1173,-4.1174,0,-4.0532,-4.0585,-4.0669,-4.0734,-4.0756,-4.0796,-4.0855,-4.0898,-4.0951,-4.0971,-4.101,-4.1029,-4.1084,-4.1069,-4.1146,-4.1118,-4.1147,-4.1168,-4.1171,-4.1179,-4.1162,-4.1199,-4.1261,-4.127,-4.1186,-4.1185,-4.1185,0,-4.0546,-4.0636,-4.07,-4.0728,-4.0804,-4.0832,-4.0865,-4.0917,-4.0951,-4.1002,-4.1025,-4.108,-4.1111,-4.1153,-4.1187,-4.1172,-4.1262,-4.1248,-4.128,-4.128,-4.1298,-4.1297,-4.1368,-4.1314,-4.1314,-4.1314,-4.1313,0,-4.0595,-4.0646,-4.0708,-4.0747,-4.0806,-4.0844,-4.0901,-4.0935,-4.0982,-4.1028,-4.105,-4.1092,-4.1134,-4.1181,-4.1207,-4.1269,-4.1281,-4.1299,-4.1306,-4.1299,-4.1297,-4.1318,-4.1316,-4.1316,-4.1315,-4.1315,-4.1314,0,-4.0619,-4.0663,-4.0734,-4.0802,-4.0821,-4.0861,-4.0919,-4.0958,-4.0991,-4.1049,-4.1065,-4.1115,-4.1173,-4.1211,-4.1283,-4.1301,-4.1369,-4.1373,-4.1352,-4.1356,-4.1386,-4.1384,-4.1475,-4.149,-4.1424,-4.1425,-4.1425,0,-4.0649,-4.069,-4.0764,-4.0799,-4.0833,-4.0886,-4.0924,-4.0963,-4.1001,-4.1067,-4.1098,-4.1158,-4.1208,-4.13,-4.1342,-4.1398,-4.1406,-4.1434,-4.1414,-4.1407,-4.1409,-4.1407,-4.1413,-4.1437,-4.1437,-4.1438,-4.1438,0,-4.0698,-4.0719,-4.0772,-4.0836,-4.088,-4.093,-4.0981,-4.1007,-4.1055,-4.1096,-4.1158,-4.1197,-4.1274,-4.1334,-4.1396,-4.1428,-4.1442,-4.1445,-4.1455,-4.1449,-4.1436,-4.1446,-4.1363,-4.1442,-4.1442,-4.1441,-4.1441,-4.1441,-4.0727,-4.0767,-4.0827,-4.0887,-4.093,-4.0978,-4.102,-4.1059,-4.1112,-4.118,-4.12,-4.1265,-4.1319,-4.1404,-4.1438,-4.1488,-4.1485,-4.15,-4.1504,-4.1507,-4.1509,-4.1427,-4.1499,-4.1499,-4.1499,-4.1499,-4.1499,0,-4.078,-4.0821,-4.0876,-4.0949,-4.0997,-4.1009,-4.1066,-4.1105,-4.1163,-4.1214,-4.1265,-4.1337,-4.1396,-4.1445,-4.1506,-4.1537,-4.1546,-4.1552,-4.1551,-4.1559,-4.1507,-4.1493,-4.1545,-4.1545,-4.1545,-4.1545,-4.1545,-4.1545,-4.0813,-4.0881,-4.091,-4.1,-4.104,-4.1107,-4.1139,-4.1183,-4.1225,-4.1306,-4.1357,-4.1389,-4.144,-4.1506,-4.1561,-4.1574,-4.1596,-4.1602,-4.1616,-4.1567,-4.1562,-4.1557,-4.1544,-4.1606,-4.1606,-4.1664,-4.1665,-4.1665]}]]